Date,TemperatureHighF,TemperatureAvgF,TemperatureLowF,DewpointHighF,DewpointAvgF,DewpointLowF,HumidityHigh,HumidityAvg,HumidityLow,PressureMaxIn,PressureMinIn,WindSpeedMaxMPH,WindSpeedAvgMPH,GustSpeedMaxMPH,PrecipitationSumIn
2013-5-1,60,43,33,48,39,32,99,87,59,30.43,29.93,24,12,40,0.65
2013-5-2,49,40,33,34,31,27,98,73,48,30.55,30.40,17,10,33,0.28
2013-5-3,45,40,33,36,30,26,87,67,57,30.41,30.06,16,9,30,0.00
2013-5-4,44,39,35,42,38,33,99,95,84,30.17,30.00,16,10,32,0.02
2013-5-5,54,47,41,50,45,41,99,94,84,30.20,30.13,9,5,22,0.01
2013-5-6,67,56,48,55,51,48,99,85,63,30.19,30.06,7,3,15,0.00
2013-5-7,76,63,49,58,53,49,99,71,43,30.12,29.99,8,2,19,0.00
2013-5-8,70,64,58,59,57,53,91,79,63,30.01,29.94,6,2,17,0.01
2013-5-9,69,60,56,60,57,56,99,91,66,30.03,29.91,11,5,20,0.69
2013-5-10,69,59,50,56,48,44,97,71,43,30.13,30.02,11,5,24,0.00
2013-5-11,61,56,47,48,29,19,75,38,23,30.28,30.06,20,8,33,0.00
2013-5-12,66,54,38,32,25,20,65,34,20,30.32,30.14,5,2,14,0.00
2013-5-13,83,67,48,53,42,27,71,43,24,30.16,29.88,7,3,26,0.00
2013-5-14,101,81,61,63,54,40,84,47,14,29.89,29.67,8,2,32,0.00
2013-5-15,86,76,64,54,42,35,53,31,21,29.97,29.81,10,4,26,0.00
2013-5-16,86,74,63,66,57,44,78,56,35,29.92,29.79,7,2,21,0.00
2013-5-17,86,75,65,65,62,60,88,66,43,29.95,29.85,9,2,20,0.00
2013-5-18,86,76,62,68,64,60,91,68,45,29.94,29.74,14,5,26,0.00
2013-5-19,79,66,60,68,63,57,99,90,64,29.87,29.54,18,3,40,0.69
2013-5-20,77,67,57,59,56,51,99,72,47,29.71,29.54,6,2,26,0.00
2013-5-21,64,60,55,59,52,47,92,76,57,29.77,29.65,6,3,18,0.00
2013-5-22,60,55,52,55,51,49,98,85,71,30.01,29.76,8,4,21,0.00
2013-5-23,74,61,51,53,48,40,98,66,33,30.27,30.01,9,4,22,0.00
2013-5-24,74,64,52,52,48,44,76,58,41,30.32,30.07,14,6,33,0.00
2013-5-25,81,67,57,70,60,47,99,80,53,30.17,30.00,12,5,28,0.27
2013-5-26,82,69,63,72,66,61,99,89,67,30.06,29.86,9,4,21,0.00
2013-5-27,76,65,36,65,61,21,98,86,53,30.07,29.62,16,4,36,1.03
2013-5-28,78,69,61,64,61,55,98,78,46,29.75,29.63,16,2,18,0.12
2013-5-29,74,67,61,68,62,59,95,85,76,29.75,29.57,14,6,30,0.56
2013-5-30,73,64,59,62,59,4,98,82,63,29.67,29.54,30,4,157,0.33
2013-5-31,77,68,56,54,50,44,86,56,33,29.73,29.63,6,2,19,0.00